Location: Leipzig
(51.3397°N, 12.3731°E)
Time: 20:21:31
(UTC+01:00)

ISS - Pass Details

Date: 18 October 2025
Orbit: 414 x 421 km, 51.6° (Epoch: 07 November)

Event Time Altitude Azimuth Distance (km) Brightness Sun altitude
Exits shadow 05:32:18 - 170° (S) 1,636 -0.8 -20.5°
Reaches altitude 10° 05:33:02 10° 160° (SSE) 1,496 -0.9 -20.4°
Maximum altitude 05:34:19 12° 137° (SE) 1,396 -0.7 -20.2°
Drops below altitude 10° 05:35:36 10° 115° (ESE) 1,503 -0.2 -20.0°
Sets 05:38:49 0° 82° (E) 2,375 1.7 -19.5°
